Content
SEND FEEDBACK

Daily
Averages
Monthly
Summary
Canada

VANCOUVER, BRITISH COLUMBIA


Home > North America > Canada > British Columbia
Elevation: 2 meters     Latitude: 49 11N     Longitude: 123 10W

WEATHER
 
SELECT A DAY
Number of Records: 249,842;   Date Range: 5/15/97 - 9/17/14
 
SHARE

PRINT THIS DATA

[ ← Previous Day ]
WEATHER ALMANAC - 17 FEBRUARY, 2013
[ Next Day → ]
[ °F ]   °C
Weather ElementAverageHighLow
Temperature4.6 °C7 °C (11:15 am)2 °C (8:35 pm)
Dewpoint3 °C4 °C (1:55 am)2 °C (8:35 am)
Humidity89.8 %100 % (6:15 am)76 % (11:15 am)
Barometer1022 hPa1023.4 hPa (9:35 am)1019.3 hPa (11:55 pm)
Wind Speed1.9 km/h13 km/h (11:15 am)
Weather ElementAverage
Visibility15.6 km
Wind DirectionNNE (37.2 °)

Weather ElementTotal
Precipitation0.51 mm
Heating Degree Days13.8 (Base 18.3)
Averaged from 65 records on 17 February, 2013
WEATHER CONDITIONS BREAKOUT
WIND DIRECTION BREAKOUT
WEATHER BY HOUR - 17 FEBRUARY, 2013
[ °F ]   °C
Local TimeTemperatureDewpointHumidityBarometerVisibilityWind DirectionWind SpeedGust SpeedPrecipitationEventsConditions
12:35 AM4 °C3 °C93 %1021.3 hPa16.1 kmCalmPartly Cloudy
12:55 AM5 °C3 °C87 %1021.7 hPa16.1 kmCalmMostly Cloudy
1:15 AM4 °C3 °C93 %1021.7 hPa16.1 kmCalmOvercast
1:35 AM5 °C3 °C87 %1022 hPa16.1 kmCalmOvercast
1:55 AM5 °C4 °C93 %1022 hPa16.1 kmCalmOvercast
2:15 AM5 °C4 °C93 %1022 hPa16.1 kmCalmOvercast
2:35 AM5 °C4 °C93 %1022 hPa16.1 kmCalmOvercast
2:55 AM5 °C4 °C93 %1022 hPa16.1 kmCalmOvercast
3:15 AM5 °C4 °C93 %1022 hPa16.1 kmCalmOvercast
4:15 AM5 °C4 °C93 %1022 hPa16.1 kmCalmRainLight Rain
4:35 AM5 °C4 °C93 %1022 hPa16.1 kmCalmScattered Clouds
5:15 AM5 °C4 °C93 %1022.4 hPa12.9 kmCalmRainLight Rain
5:35 AM5 °C4 °C93 %1022.4 hPa14.5 kmCalmRainLight Rain
5:55 AM5 °C4 °C93 %1022.4 hPa8 kmCalmRainLight Rain
6:15 AM4 °C4 °C100 %1022.4 hPa16.1 kmCalmMostly Cloudy
6:35 AM4 °C4 °C100 %1022.4 hPa16.1 kmCalmMostly Cloudy
6:55 AM4 °C4 °C100 %1022.4 hPa16.1 kmCalmOvercast
7:15 AM4 °C4 °C100 %1022.4 hPa16.1 kmCalmOvercast
7:35 AM4 °C4 °C100 %1022.7 hPa12.9 kmWSW (250°)7.4 km/hRainLight Rain
7:55 AM4 °C3 °C93 %1022.7 hPa8 kmCalm0.51 mmRainLight Rain
8:15 AM4 °C3 °C93 %1022.7 hPa16.1 kmCalmOvercast
8:35 AM4 °C2 °C87 %1023 hPa16.1 kmEast (100°)5.6 km/hOvercast
8:55 AM4 °C2 °C87 %1023 hPa16.1 kmCalmOvercast
9:15 AM4 °C2 °C87 %1023 hPa16.1 kmESE (110°)5.6 km/hMostly Cloudy
9:35 AM5 °C3 °C87 %1023.4 hPa16.1 kmNorthOvercast
9:55 AM5 °C2 °C81 %1023.4 hPa16.1 kmCalmOvercast
10:15 AM5 °C3 °C87 %1023 hPa16.1 kmCalmOvercast
10:55 AM6 °C4 °C87 %1023 hPa16.1 kmNorthMostly Cloudy
11:15 AM7 °C3 °C76 %1023 hPa16.1 kmSSW (200°)13 km/hMostly Cloudy
11:35 AM7 °C3 °C76 %1023 hPa16.1 kmSouth (190°)11.1 km/hMostly Cloudy
11:55 AM7 °C3 °C76 %1023 hPa16.1 kmNorthMostly Cloudy
12:15 PM7 °C3 °C76 %1023 hPa16.1 kmSSE (160°)5.6 km/hOvercast
12:35 PM7 °C3 °C76 %1022.7 hPa16.1 kmSouth (190°)13 km/hMostly Cloudy
12:55 PM7 °C3 °C76 %1022.7 hPa16.1 kmSSW (200°)13 km/hScattered Clouds
1:15 PM7 °C3 °C76 %1022.7 hPa16.1 kmSouth (190°)11.1 km/hClear
1:35 PM7 °C3 °C76 %1022.7 hPa16.1 kmSouth (190°)13 km/hScattered Clouds
1:55 PM7 °C3 °C76 %1022.7 hPa16.1 kmWNW (300°)7.4 km/hMostly Cloudy
2:15 PM4 °C3 °C93 %1022.7 hPa11.3 kmNNW (340°)13 km/hRainLight Rain
2:35 PM5 °C3 °C87 %1022.4 hPa16.1 kmCalmRainLight Rain
2:55 PM5 °C3 °C87 %1022.4 hPa16.1 kmCalmMostly Cloudy
3:15 PM5 °C3 °C87 %1022.4 hPa16.1 kmCalmMostly Cloudy
3:35 PM5 °C3 °C87 %1022.4 hPa16.1 kmCalmMostly Cloudy
3:55 PM5 °C3 °C87 %1022 hPa16.1 kmCalmMostly Cloudy
4:15 PM6 °C2 °C76 %1022 hPa16.1 kmCalmMostly Cloudy
4:35 PM6 °C2 °C76 %1021.7 hPa16.1 kmCalmMostly Cloudy
4:55 PM6 °C3 °C81 %1021.7 hPa16.1 kmCalmMostly Cloudy
5:15 PM5 °C4 °C93 %1021.3 hPa16.1 kmCalmPartly Cloudy
5:35 PM5 °C4 °C93 %1021.3 hPa16.1 kmCalmPartly Cloudy
5:55 PM4 °C3 °C93 %1021.3 hPa16.1 kmCalmClear
6:15 PM4 °C3 °C93 %1021 hPa16.1 kmCalmClear
6:35 PM4 °C3 °C93 %1021 hPa16.1 kmCalmClear
6:55 PM3 °C2 °C93 %1021 hPa16.1 kmCalmClear
7:15 PM3 °C2 °C93 %1021 hPa16.1 kmCalmClear
7:35 PM3 °C2 °C93 %1021 hPa16.1 kmCalmClear
7:55 PM3 °C2 °C93 %1021 hPa16.1 kmCalmClear
8:15 PM3 °C2 °C93 %1021 hPa16.1 kmCalmClear
8:35 PM2 °C2 °C100 %1021 hPa16.1 kmCalmClear
8:55 PM2 °C2 °C100 %1020.7 hPa16.1 kmCalmPartly Cloudy
9:15 PM2 °C2 °C100 %1020.7 hPa16.1 kmCalmMostly Cloudy
9:35 PM3 °C2 °C93 %1020.7 hPa16.1 kmCalmOvercast
10:15 PM3 °C3 °C100 %1020.3 hPa16.1 kmCalmOvercast
10:35 PM3 °C3 °C100 %1020.3 hPa16.1 kmCalmOvercast
11:15 PM3 °C3 °C100 %1019.6 hPa16.1 kmCalmMostly Cloudy
11:35 PM3 °C2 °C93 %1019.6 hPa16.1 kmCalmPartly Cloudy
11:55 PM2 °C2 °C100 %1019.3 hPa16.1 kmCalmClear
Hourly data recorded from CZBB, located 0 kilometers away from Vancouver, British Columbia







STORIES FROM OUR PARTNERS